Weather History for Richmond, VA

Change the Weather History Date:

Saturday, June 7, 2014

  Actual Average Record
Temperature  
Mean Temperature 72 °F 73 °F  
Max Temperature 85 °F 84 °F 100 °F (2008)
Min Temperature 59 °F 62 °F 48 °F (1945)
Degree Days  
Heating Degree Days 0 0  
Month to date heating degree days 0 5  
Since 1 June heating degree days 0 5  
Since 1 July heating degree days 3780 3771  
Cooling Degree Days 7 8  
Month to date cooling degree days 48 53  
Year to date cooling degree days 256 214  
Since 1 June cooling degree days 48 53  
Growing Degree Days 22 (Base 50)    
Moisture  
Dew Point 56 °F    
Average Humidity 61    
Maximum Humidity 87    
Minimum Humidity 34    
Precipitation  
Precipitation 0.00 in 0.13 in 2.67 in (2013)
Month to date precipitation 0.29 0.95  
Year to date precipitation 16.33 17.84  
Snow  
Snow 0.00 in 0.00 in 0.00 in (2002)
Month to date snowfall 0.0 0.0  
Since 1 July snowfall 14.5 10.3  
Snow Depth 0.00 in    
Sea Level Pressure  
Sea Level Pressure 30.01 in    
Wind  
Wind Speed 3 mph (ENE)    
Max Wind Speed 12 mph    
Max Gust Speed 15 mph    
Visibility 10 miles    
Events      
T = Trace of Precipitation, MM = Missing Value Source: NWS Daily Summary

Daily Weather History Graph

Daily Weather History Graph

Search for Another Location

Airport:

Trip Planner

Search our weather history database for the weather conditions in past years. The results will help you decide how hot, cold, wet, or windy it might be!

Date:

Astronomy

Jun. 07, 2014 Rise Set
Actual Time 5:48 AM EDT 8:28 PM EDT
Civil Twilight 5:17 AM EDT 8:59 PM EDT
Nautical Twilight 4:38 AM EDT 9:37 PM EDT
Astronomical Twilight 3:55 AM EDT 10:21 PM EDT
Moon 2:50 PM EDT (6/7) 2:01 AM EDT (6/7)
Length of Visible Light 15h 42m
Length of Day
14h 40m
Waxing Gibbous, 67% of the Moon is Illuminated
Jun 7
Waxing Gibbous
Jun 13
Full
Jun 19
Last Quarter
Jun 27
New
Jul 5
First Quarter

Hourly Weather History & Observations

Time (EDT) Temp. Heat Index Dew Point Humidity Pressure Visibility Wind Dir Wind Speed Gust Speed Precip Events Conditions
12:54 AM 64.0 °F - 54.0 °F 70% 29.99 in 10.0 mi Calm Calm - N/A   Partly Cloudy
1:54 AM 62.1 °F - 54.0 °F 75% 30.00 in 10.0 mi Calm Calm - N/A   Partly Cloudy
2:54 AM 62.1 °F - 54.0 °F 75% 30.00 in 10.0 mi Calm Calm - N/A   Partly Cloudy
3:54 AM 61.0 °F - 55.9 °F 83% 29.99 in 10.0 mi Calm Calm - N/A   Clear
4:54 AM 59.0 °F - 55.0 °F 87% 30.00 in 10.0 mi Calm Calm - N/A   Clear
5:54 AM 60.1 °F - 55.0 °F 83% 30.01 in 10.0 mi Calm Calm - N/A   Scattered Clouds
6:54 AM 63.0 °F - 57.9 °F 84% 30.04 in 10.0 mi Calm Calm - N/A   Mostly Cloudy
7:54 AM 68.0 °F - 59.0 °F 73% 30.04 in 10.0 mi Calm Calm - N/A   Scattered Clouds
8:54 AM 73.4 °F - 60.8 °F 65% 30.04 in 10.0 mi Calm Calm - N/A   Mostly Cloudy
9:54 AM 75.9 °F - 55.9 °F 50% 30.05 in 10.0 mi Variable 3.5 mph - N/A   Mostly Cloudy
10:54 AM 79.0 °F - 55.0 °F 44% 30.06 in 10.0 mi Calm Calm - N/A   Mostly Cloudy
11:54 AM 80.1 °F - 52.0 °F 38% 30.06 in 10.0 mi WSW 5.8 mph - N/A   Mostly Cloudy
12:54 PM 81.0 °F 80.4 °F 53.1 °F 38% 30.04 in 10.0 mi North 6.9 mph - N/A   Mostly Cloudy
1:54 PM 82.0 °F 81.2 °F 53.1 °F 37% 30.02 in 10.0 mi Variable 5.8 mph - N/A   Scattered Clouds
2:54 PM 82.0 °F 81.3 °F 54.0 °F 38% 30.01 in 10.0 mi NNE 9.2 mph - N/A   Scattered Clouds
3:54 PM 82.0 °F 81.2 °F 53.1 °F 37% 29.99 in 10.0 mi Variable 5.8 mph - N/A   Scattered Clouds
4:54 PM 84.9 °F 83.3 °F 54.0 °F 34% 29.98 in 10.0 mi NNE 9.2 mph - N/A   Scattered Clouds
5:54 PM 82.9 °F 81.9 °F 54.0 °F 37% 29.98 in 10.0 mi NE 6.9 mph - N/A   Scattered Clouds
6:54 PM 81.0 °F 80.7 °F 55.0 °F 41% 29.97 in 10.0 mi ENE 4.6 mph - N/A   Scattered Clouds
7:54 PM 78.1 °F - 55.9 °F 46% 29.98 in 10.0 mi East 3.5 mph - N/A   Partly Cloudy
8:54 PM 73.9 °F - 57.9 °F 57% 29.98 in 10.0 mi ESE 3.5 mph - N/A   Partly Cloudy
9:54 PM 69.1 °F - 59.0 °F 70% 30.00 in 10.0 mi ESE 5.8 mph - N/A   Clear
10:54 PM 68.0 °F - 57.9 °F 70% 30.00 in 10.0 mi Calm Calm - N/A   Clear
11:54 PM 66.0 °F - 57.9 °F 75% 30.01 in 10.0 mi Calm Calm - N/A   Partly Cloudy